Wind_Speed
23 23 25 27 27 27 25 24 23 21 19 18 17 17 19 19 18 18 19 20 20 19 17 16 16 15 15 14 14 14 14 14 13 14 14 15 16 17 17 16 16 15 14 14 14 14 14 14 14 14 14 15 15 15 15 15 15 15 15 15 15 15 16 17 17 18 18 19 19 19 19 19 19 18 18 17 17 16 17 17 18 18 18 19 20
27 27 29 29 28 27 27 26 24 23 23 23 22 20 20 21 20 19 20 22 23 22 20 19 18 17 17 18 17 17 16 16 16 16 16 17 18 18 18 18 18 17 16 15 15 14 14 14 14 14 15 15 15 16 16 16 17 17 18 18 17 17 18 18 19 20 20 20 21 21 21 21 22 21 21 20 20 20 20 20 20 21 21 22 22
31 32 33 33 32 30 27 26 26 26 26 26 24 23 23 23 22 21 22 23 24 23 22 21 21 20 20 20 19 19 19 18 17 18 19 19 19 19 19 19 20 20 20 18 18 16 15 15 15 14 15 15 15 16 17 17 18 18 19 19 20 20 20 20 21 22 23 23 23 23 23 23 23 24 24 24 23 23 23 23 23 23 24 24 25
33 31 30 29 30 31 30 29 28 29 29 28 27 25 25 26 26 25 25 24 24 24 23 23 23 23 23 23 22 22 22 20 20 20 20 20 21 21 20 19 19 20 21 21 20 19 18 17 17 16 16 16 16 17 18 19 20 20 21 21 22 22 22 22 22 23 24 25 26 26 26 26 26 26 27 27 27 27 26 26 26 26 26 26 27
36 36 33 28 26 28 29 30 30 30 31 31 29 28 28 28 29 29 28 26 25 26 25 24 25 26 25 26 26 26 26 25 23 22 21 21 22 23 22 21 20 20 21 21 21 21 21 20 20 20 20 20 20 20 21 21 22 22 23 24 25 25 25 25 25 25 24 25 26 28 28 29 29 29 29 29 30 30 30 30 30 30 29 29 29
36 38 38 36 33 31 32 33 33 33 33 33 32 32 32 32 32 33 31 28 26 26 26 26 28 29 28 28 29 29 28 27 26 25 25 23 23 23 24 24 24 23 23 23 23 23 24 24 24 24 24 24 23 23 24 24 25 25 26 27 27 28 28 28 28 28 27 27 27 28 29 30 31 32 32 32 31 32 32 33 33 33 32 32 32
36 37 38 39 39 37 35 35 34 32 32 33 34 35 36 37 37 37 36 33 30 29 29 29 31 32 31 31 33 33 31 30 29 28 27 26 26 26 25 24 25 26 27 27 26 26 27 27 27 27 27 26 25 25 25 26 26 27 28 28 29 30 30 31 31 31 30 30 29 29 30 31 32 32 34 34 33 33 33 33 34 35 35 35 34
39 39 39 40 40 39 38 37 35 34 33 34 35 36 38 39 38 37 37 36 36 35 34 33 33 33 32 31 31 32 32 31 31 30 29 28 29 29 29 28 27 28 29 30 30 30 30 30 29 28 28 28 28 27 27 27 28 29 29 30 31 31 32 32 32 32 32 32 32 31 31 32 33 33 34 35 36 36 35 34 34 35 36 36 36
43 43 43 42 42 43 43 43 43 41 40 39 39 39 39 39 38 37 37 36 37 38 38 37 36 35 34 31 29 30 31 31 32 32 31 31 31 31 33 34 33 31 30 30 31 32 32 32 31 31 31 31 32 31 30 29 30 31 31 31 32 32 32 32 33 33 33 33 33 33 33 33 34 34 35 36 36 37 37 38 37 36 36 36 37
46 46 46 45 45 45 46 47 47 46 45 44 44 44 44 44 43 42 40 39 38 39 40 40 40 38 37 36 35 35 36 36 36 35 34 34 35 35 36 37 37 35 32 30 31 32 32 33 33 33 34 35 35 35 34 32 32 32 32 33 33 33 34 34 35 35 35 35 34 35 35 35 35 36 36 37 37 37 37 38 39 39 39 38 38
46 47 48 49 49 49 49 49 49 49 49 48 47 47 48 48 47 46 44 41 41 41 42 42 43 42 42 42 42 42 42 41 40 38 36 36 36 35 35 35 35 35 35 35 36 36 36 37 37 37 38 38 38 38 37 36 36 35 35 36 36 37 38 38 38 38 37 37 36 37 37 37 38 38 38 38 39 39 39 39 39 40 40 40 40
45 46 48 50 52 53 52 52 52 52 52 52 52 52 52 52 51 50 48 46 45 45 44 44 45 46 47 47 47 47 46 45 44 43 41 40 40 39 38 38 39 40 40 40 40 40 40 40 40 40 40 41 41 41 41 40 40 39 39 39 39 41 42 42 41 41 41 41 41 41 41 40 40 41 41 41 41 41 41 41 41 41 41 42 42
45 46 46 46 47 50 52 53 53 53 53 54 55 56 56 56 55 55 53 52 51 50 48 48 48 49 49 48 48 48 47 47 47 47 47 47 47 48 47 47 48 47 47 46 44 43 43 42 43 43 43 43 43 44 44 44 44 44 44 44 45 46 46 47 47 48 48 48 47 47 47 46 44 43 44 44 43 43 44 44 44 44 43 43 44
45 45 44 42 42 44 46 47 48 48 49 50 51 53 54 55 56 56 56 55 55 53 51 51 51 52 52 51 49 49 48 48 48 48 49 49 49 49 48 48 49 49 48 48 47 47 47 47 47 48 47 47 47 47 48 48 49 49 49 48 49 49 49 50 52 53 54 53 52 51 50 50 49 47 46 46 46 45 45 45 45 46 46 46 46
45 44 45 45 45 45 44 44 45 46 48 49 50 50 50 51 52 53 54 55 55 55 53 52 51 52 53 52 50 48 47 47 47 48 48 49 49 49 48 47 47 47 47 47 48 49 49 49 50 50 50 49 49 48 49 49 50 50 50 50 49 50 50 52 53 53 53 53 53 52 51 51 51 50 49 49 48 48 47 46 46 46 47 48 48
46 46 46 47 48 48 47 47 48 49 51 52 52 51 51 50 50 50 51 53 54 55 55 55 54 54 54 53 52 51 50 50 50 49 49 49 50 51 51 51 50 49 48 49 49 50 50 49 50 50 50 50 49 49 49 50 50 50 50 50 50 50 51 51 52 52 52 51 51 51 51 51 51 51 51 50 50 50 50 49 48 48 48 48 48
48 49 49 50 51 51 51 52 52 53 53 53 53 52 51 51 50 50 51 52 53 54 55 55 55 55 55 55 55 54 54 54 53 53 54 54 54 54 54 54 54 53 52 52 52 52 52 52 51 50 50 50 50 50 51 50 50 49 49 49 49 49 50 50 51 51 51 50 50 50 51 50 50 50 51 51 51 52 52 51 52 52 51 50 50
52 53 53 53 54 55 55 56 56 55 53 52 52 52 51 51 51 51 51 52 52 53 53 54 54 54 55 54 54 54 53 53 52 53 53 54 53 53 53 53 54 54 53 53 52 52 53 53 52 51 50 50 50 50 50 50 49 49 49 48 48 48 49 49 49 49 50 50 50 50 50 50 50 50 51 52 53 54 54 54 54 55 54 53 53
53 53 54 54 55 56 56 56 56 55 53 52 52 52 52 52 52 52 52 52 52 53 53 53 53 53 53 53 53 53 52 52 51 51 51 51 50 50 50 50 51 51 51 51 50 50 50 51 50 50 49 49 49 48 48 48 49 49 49 48 48 48 49 49 49 49 49 49 49 49 49 49 50 50 51 52 53 54 55 55 56 56 56 56 56
56 56 56 56 55 56 56 56 56 55 54 53 52 52 52 53 53 54 54 54 54 54 55 55 55 55 54 54 54 54 54 53 53 52 51 50 49 48 47 48 48 49 49 49 49 49 49 48 48 48 47 47 47 47 48 48 48 48 48 49 49 49 49 49 49 49 49 48 49 49 49 49 50 50 50 51 52 53 54 55 56 56 57 57 57
58 58 58 57 56 56 56 55 54 54 53 52 51 51 52 52 53 54 54 55 55 55 54 54 54 55 55 55 55 54 54 54 53 53 52 50 49 48 47 47 47 47 48 49 49 49 48 48 47 47 47 47 47 47 48 48 48 48 49 49 50 50 49 49 49 49 49 48 49 49 49 50 51 51 52 52 52 52 53 54 55 56 57 58 58
60 59 58 57 56 55 54 53 52 51 51 51 50 49 49 50 51 52 52 52 52 52 52 52 52 53 54 54 54 53 52 52 51 51 51 50 48 47 47 46 46 47 47 48 48 48 48 48 48 47 47 48 48 48 48 48 49 49 50 50 50 50 50 50 49 49 49 49 49 49 50 51 52 53 53 53 52 52 52 53 54 55 57 59 60
61 60 58 57 55 54 53 52 51 51 51 50 49 49 48 48 48 49 49 49 50 50 50 50 50 51 51 51 52 51 51 50 49 49 48 47 47 46 46 46 46 46 47 47 48 48 48 47 47 48 48 49 48 48 49 49 50 50 50 50 51 51 51 50 49 48 48 48 48 49 50 51 52 53 52 52 51 51 52 53 55 56 58 60 61
60 59 57 56 56 55 54 53 52 51 51 50 49 48 48 47 46 46 46 47 48 48 48 48 48 49 49 49 49 49 48 48 47 46 45 44 44 45 45 45 45 46 46 47 48 48 48 47 47 48 48 48 48 48 48 48 48 49 49 50 51 51 51 50 49 48 47 48 48 49 49 50 51 51 51 51 51 52 54 55 57 59 60 61 62
59 58 56 56 56 56 55 54 53 52 51 50 49 48 47 46 45 45 45 46 47 47 47 46 46 46 46 46 47 46 45 45 44 42 42 42 42 43 44 44 44 45 46 46 47 47 47 47 47 46 46 45 45 45 46 46 46 47 48 49 49 50 50 50 49 49 49 49 50 50 51 52 52 53 53 53 54 55 57 57 58 59 59 60 61
59 57 56 55 55 55 55 55 53 52 51 50 49 47 46 45 45 45 45 45 45 45 45 45 44 44 45 45 45 44 43 42 41 40 39 40 40 41 42 42 43 44 44 45 45 45 45 45 44 43 42 41 42 43 43 44 45 46 47 47 48 48 49 50 50 51 52 52 53 54 55 56 56 56 56 57 57 57 57 57 56 56 56 56 57
58 57 56 55 56 56 56 55 54 52 51 50 48 46 45 45 45 44 44 44 45 45 44 43 43 43 43 43 42 41 40 39 38 37 38 38 39 39 40 40 41 41 42 42 42 42 42 42 42 41 40 40 41 42 43 44 46 46 47 47 48 49 50 51 52 53 54 55 56 57 58 59 59 60 60 60 59 58 57 56 55 55 55 55 55
57 57 57 57 57 57 56 55 53 52 51 49 47 46 46 45 44 44 43 44 44 43 42 41 41 41 40 40 39 39 38 38 37 37 37 38 38 38 39 39 40 40 40 40 41 41 41 42 42 41 42 42 43 44 45 46 46 47 47 48 49 50 50 51 52 53 55 56 58 59 60 61 61 62 62 61 60 59 58 58 57 56 56 55 54
57 57 57 57 56 55 54 53 52 52 49 48 46 46 45 44 44 44 43 43 43 42 41 41 41 40 39 39 38 38 38 38 38 38 38 39 39 39 39 39 40 40 40 40 41 41 41 40 40 40 41 41 42 42 43 44 44 45 47 48 48 49 50 52 54 56 58 60 61 62 62 63 62 62 61 60 59 59 58 58 57 56 56 55 54
56 56 55 54 53 53 51 50 51 50 48 47 47 46 44 43 43 44 43 42 42 41 40 40 40 40 39 39 38 38 39 38 38 38 39 39 40 40 39 39 39 40 40 40 39 38 37 36 35 35 35 36 37 38 39 40 42 44 45 47 48 50 52 54 57 59 61 62 63 63 63 61 60 59 57 57 56 56 56 56 56 56 55 55 54
55 54 53 52 52 52 51 50 49 49 48 46 46 46 44 43 44 43 43 42 42 41 41 40 40 40 40 40 39 39 40 39 39 39 39 39 39 39 38 38 38 38 38 36 34 32 31 30 29 30 31 32 34 35 37 39 42 44 46 48 50 52 55 57 59 61 62 62 61 60 58 56 55 53 53 53 53 53 54 54 55 54 54 54 54
54 53 52 52 52 52 51 50 49 48 47 46 46 45 44 43 43 43 42 42 41 41 41 41 40 40 40 40 40 40 40 40 40 40 39 39 38 37 37 36 35 33 31 29 26 24 24 25 26 27 29 31 33 35 38 40 42 45 47 49 51 53 55 57 58 58 57 56 54 52 51 50 50 49 49 49 49 49 50 50 51 51 51 51 51
54 53 52 52 52 52 52 51 49 47 46 46 46 45 44 43 43 43 42 42 41 41 41 41 40 40 40 41 41 41 41 40 40 39 38 37 36 34 33 31 28 25 22 20 19 20 21 23 25 27 29 31 33 35 37 39 41 43 45 48 49 51 51 52 52 51 50 49 49 48 47 45 44 42 42 41 41 41 41 42 43 44 45 45 46
55 54 53 53 53 52 52 51 49 47 47 47 46 44 43 43 43 43 42 41 41 41 41 41 41 40 40 41 41 41 40 39 38 36 35 33 31 28 25 21 18 16 15 16 17 19 21 23 25 26 28 30 31 33 35 37 39 41 43 45 47 47 48 48 48 48 48 47 45 42 38 35 33 32 31 30 31 31 31 33 34 35 36 38 39
53 53 53 52 53 52 51 50 49 47 47 47 45 44 43 43 42 41 40 40 40 40 39 40 40 39 39 38 38 37 36 33 31 29 28 26 23 20 16 14 12 13 14 16 17 18 19 20 21 23 25 27 29 31 33 35 37 39 41 43 44 45 45 45 44 43 41 38 34 29 26 24 23 22 22 21 21 22 22 23 24 25 27 28 30
48 49 49 50 50 50 50 49 48 47 46 44 43 42 41 40 39 37 36 36 36 35 35 36 35 33 32 32 31 29 26 22 21 20 20 18 16 14 13 12 13 14 14 14 14 13 14 16 18 21 23 26 28 29 31 33 35 37 39 41 41 40 38 36 33 31 29 25 22 20 18 18 17 17 16 16 16 17 17 17 17 18 19 20 21
39 41 42 44 45 45 46 45 44 43 41 38 37 36 34 32 30 29 28 28 29 28 28 27 25 24 24 23 20 17 15 15 15 14 13 12 13 14 13 13 12 12 11 9 8 9 12 15 19 21 23 25 26 28 30 32 35 38 39 38 36 32 27 24 23 22 21 19 17 17 16 16 15 14 14 14 15 15 16 16 16 17 18 18 19
29 31 33 35 36 37 36 35 33 33 31 29 28 27 24 22 21 20 20 21 22 21 20 19 18 18 18 16 13 12 13 13 13 13 12 12 13 13 13 12 10 9 7 5 6 9 13 17 20 22 24 24 26 27 30 34 37 39 37 33 28 23 19 17 18 18 17 16 15 15 14 14 13 13 13 13 14 16 17 18 19 20 20 21 22
17 21 23 24 25 25 25 24 23 22 21 20 19 18 17 15 16 17 17 16 16 15 14 13 13 14 14 15 14 12 12 13 14 14 14 14 14 13 12 10 9 7 4 3 7 11 14 17 20 23 25 25 26 28 31 35 38 37 32 25 20 16 14 13 15 15 14 13 12 12 12 12 12 13 14 16 18 20 21 22 22 22 22 22 23
11 13 15 16 17 18 18 19 19 19 19 17 16 14 14 15 16 17 16 14 13 13 12 12 11 12 14 16 14 11 11 14 15 15 15 15 14 12 11 10 8 5 2 4 8 11 14 18 21 24 26 27 27 29 32 36 38 34 26 19 16 14 12 12 12 12 11 10 10 10 11 12 14 16 18 19 19 19 20 20 19 19 19 20 20
9 11 13 14 17 19 21 21 21 20 19 17 15 15 15 16 17 17 15 14 13 13 12 12 12 14 15 15 12 11 12 15 16 16 15 14 12 11 10 10 7 3 1 4 8 11 15 18 21 25 27 28 29 30 33 37 38 31 22 16 15 14 11 11 10 9 8 8 9 10 12 14 16 18 19 18 17 16 15 16 16 17 17 17 18
15 16 18 19 21 23 23 21 19 18 18 18 17 16 16 17 17 16 15 14 13 13 13 13 14 15 16 14 13 14 16 17 16 15 14 12 11 11 11 9 6 2 1 3 7 11 15 18 21 24 27 29 30 31 32 36 38 32 21 15 15 14 11 10 9 7 7 9 10 12 14 17 18 18 18 17 16 16 16 16 17 18 17 16 15
14 15 16 18 19 19 19 18 18 18 19 18 16 16 16 16 15 15 15 14 14 14 14 14 15 15 15 15 16 17 19 18 16 14 13 11 11 12 11 8 5 4 3 4 7 10 14 17 21 24 27 30 31 32 32 35 38 34 24 16 14 14 11 9 9 8 7 9 11 13 15 17 18 17 17 17 17 17 17 18 18 17 15 13 10
14 14 16 18 19 18 18 18 18 17 17 16 15 15 15 15 15 15 15 15 15 14 14 14 14 15 16 17 19 20 19 16 15 13 12 11 12 12 10 8 7 6 5 5 7 9 13 16 20 23 27 30 32 34 34 35 38 38 30 19 14 14 12 9 7 7 7 8 11 14 16 17 16 16 16 16 17 17 18 19 19 18 14 9 6
13 13 15 17 18 18 17 16 16 15 14 14 14 15 15 15 15 16 15 15 13 13 13 14 16 17 18 19 20 19 16 15 14 12 11 12 12 12 11 10 9 7 6 6 8 10 12 15 19 22 26 29 32 34 35 36 37 39 36 26 16 13 12 10 7 7 8 8 10 14 15 14 14 15 15 14 14 16 17 18 19 18 15 10 8
17 16 15 15 15 15 15 15 15 15 15 15 15 14 14 14 14 14 13 13 12 13 15 17 18 19 20 19 18 16 15 14 13 12 12 12 13 12 12 11 9 8 8 7 8 10 12 15 18 21 24 28 31 34 36 37 37 38 39 33 23 15 13 11 9 8 8 8 11 13 13 12 12 13 13 11 11 13 15 17 17 16 15 13 11
17 16 16 16 15 15 14 14 14 14 14 13 13 12 12 12 12 12 12 13 14 15 17 18 19 19 17 16 15 14 13 13 12 12 12 12 13 13 12 11 10 9 9 9 9 10 12 14 17 20 23 26 30 32 35 36 36 36 38 38 31 22 16 13 11 9 8 9 11 12 10 10 12 12 10 9 9 10 13 16 16 14 13 13 12
13 12 12 12 11 11 10 10 10 10 10 9 9 9 9 9 10 11 13 15 16 18 18 17 16 15 14 13 13 12 12 12 12 11 12 12 13 13 13 12 10 9 9 10 10 11 13 14 17 19 21 24 28 30 33 35 36 35 36 37 35 28 19 15 12 9 8 8 10 9 8 10 12 11 8 7 8 10 13 14 14 12 11 10 11
9 9 9 9 9 8 8 7 7 6 6 6 6 7 7 8 10 13 16 17 18 17 16 15 14 13 12 12 12 13 13 12 12 12 12 13 13 13 13 12 11 10 10 10 11 12 13 14 16 18 20 22 25 28 30 32 34 35 35 35 36 32 24 17 13 10 9 9 8 7 7 10 11 9 8 9 10 11 12 12 11 11 10 9 8
7 7 7 7 7 7 7 6 6 5 4 5 5 7 9 12 15 16 17 17 16 15 14 13 12 12 12 13 13 13 13 12 12 12 13 13 13 14 13 12 11 12 12 11 11 12 13 15 16 18 19 21 23 26 28 29 32 33 34 33 34 35 31 23 16 11 10 9 7 6 6 9 9 7 8 10 10 11 11 11 11 12 11 8 7
6 6 5 5 5 6 6 6 6 6 5 6 7 9 13 15 16 16 15 15 14 13 12 11 11 12 12 13 13 13 13 13 12 13 13 14 14 14 14 13 13 13 13 12 12 13 13 15 16 17 19 20 22 23 25 27 29 31 33 33 33 34 34 30 23 15 11 10 8 7 6 7 8 6 6 8 10 11 12 12 12 12 11 9 7
Wind_Direction
268 260 259 264 265 259 258 263 264 261 260 256 255 260 264 266 267 269 271 270 269 271 269 267 268 267 263 262 266 271 273 273 276 280 282 286 288 289 288 284 279 273 268 265 264 262 261 262 263 264 267 269 272 272 271 270 270 270 269 267 268 269 271 272 272 271 269 269 269 268 265 264 262 261 261 262 260 257 257 256 256 255 253 250 249
269 266 264 263 260 260 263 264 261 259 258 257 259 262 267 272 272 272 273 273 273 274 270 267 267 266 264 265 270 275 275 273 275 276 275 275 276 278 280 281 280 275 271 267 265 264 265 265 265 266 269 271 274 277 278 277 276 275 274 273 270 268 267 268 271 273 272 271 270 270 268 267 265 264 263 262 261 259 257 256 255 254 253 252 251
271 269 267 263 260 261 264 263 261 259 257 257 260 264 269 272 271 268 266 266 269 272 272 272 272 270 268 267 269 274 273 272 274 278 278 275 272 271 271 273 277 278 277 275 271 267 266 266 266 267 268 271 274 276 278 280 279 279 278 278 277 274 271 269 269 270 272 272 271 270 269 268 266 265 265 264 262 261 259 257 256 254 253 254 254
270 272 273 272 265 260 261 264 264 262 259 259 262 266 270 271 269 266 263 261 263 264 265 267 270 273 272 271 271 272 270 269 270 273 274 275 273 271 269 268 271 276 278 279 278 276 272 269 269 269 269 270 273 276 279 280 281 281 281 280 280 279 277 274 272 270 270 272 272 271 270 269 267 266 264 264 263 262 261 260 259 258 257 255 255
266 267 271 275 273 267 265 266 265 262 261 261 264 269 272 273 272 269 266 264 265 263 260 259 263 267 267 267 269 270 268 268 271 273 273 273 271 269 269 268 268 269 271 273 275 276 276 275 273 273 274 275 277 280 283 284 285 285 285 285 284 283 281 280 278 275 273 272 273 272 271 270 270 268 265 264 263 262 262 261 262 261 261 259 258
265 265 264 266 269 270 269 268 266 263 260 259 261 266 269 271 272 271 268 267 267 267 264 261 262 263 263 262 262 262 263 265 269 273 274 273 272 270 270 270 269 267 265 265 266 268 272 275 276 277 278 281 283 284 285 286 287 287 286 286 285 284 283 282 281 280 277 275 274 274 274 272 272 271 269 267 265 263 262 262 263 262 262 261 261
269 267 265 264 265 268 269 268 267 264 261 260 262 266 268 268 269 270 268 264 264 267 268 266 268 267 267 266 261 256 257 260 264 267 269 272 273 272 271 271 271 269 266 265 264 265 267 270 274 278 279 280 282 284 285 285 286 286 286 285 285 284 284 282 282 281 280 278 276 274 274 274 273 272 271 270 269 267 264 263 263 263 262 261 261
271 269 268 267 267 268 268 267 267 267 266 265 267 270 269 268 271 273 271 264 261 265 268 269 271 271 270 270 265 257 255 260 262 261 262 266 268 269 269 269 269 269 268 266 265 266 268 270 272 275 277 279 281 283 283 283 283 283 283 283 283 284 284 283 282 281 280 279 278 276 275 275 274 273 272 271 270 270 268 265 264 264 263 262 262
272 270 269 269 268 268 268 269 270 271 270 269 268 269 269 270 272 275 275 269 264 266 270 270 270 271 271 272 271 265 262 264 265 261 259 261 263 264 267 267 267 266 265 265 265 265 267 270 271 272 275 279 283 283 282 282 282 283 283 283 283 282 282 282 281 281 280 279 278 277 276 276 275 275 274 272 271 270 269 268 267 266 264 263 263
269 269 269 269 269 269 270 271 272 273 272 271 270 270 270 271 273 274 275 274 270 270 272 271 269 269 271 273 274 272 269 268 267 265 266 268 269 268 267 265 264 263 262 263 265 266 268 270 271 272 276 280 283 283 283 282 282 282 283 284 283 282 282 282 282 281 280 279 278 277 276 276 276 275 275 274 273 272 270 269 268 267 266 265 265
265 265 266 267 267 268 269 270 271 272 273 273 273 272 272 272 273 273 273 271 270 269 269 270 270 270 271 272 273 273 271 270 268 267 267 269 269 268 265 262 262 264 264 266 268 270 271 272 272 274 277 279 280 281 282 282 281 281 281 282 282 283 284 284 282 281 280 279 279 279 278 277 277 277 275 275 274 273 271 269 268 267 266 265 265
263 263 264 264 264 263 264 265 267 269 271 272 272 272 273 272 272 272 271 270 269 268 268 269 270 270 271 272 273 274 274 273 272 271 269 267 266 267 266 265 268 270 272 273 274 273 273 274 274 275 276 277 279 280 282 281 281 280 280 281 282 284 286 285 283 282 282 282 282 282 281 280 279 278 277 275 274 273 272 271 269 267 266 265 264
264 264 265 265 265 263 262 264 266 267 269 269 270 270 270 271 271 270 270 269 269 268 267 267 268 268 268 269 271 272 273 274 275 276 275 273 272 272 271 271 273 274 275 275 274 273 273 274 274 275 276 277 278 280 281 281 281 281 282 282 283 284 285 284 283 283 284 284 284 283 283 283 282 280 279 277 275 273 272 271 270 268 267 266 264
266 265 265 267 268 267 265 266 268 270 271 271 271 270 270 270 270 270 269 269 268 267 266 266 267 268 268 268 269 270 272 273 274 275 277 277 277 276 275 274 275 275 275 274 272 272 272 272 273 274 275 277 279 280 281 282 282 282 283 283 283 282 282 281 282 282 283 284 283 282 281 282 282 282 280 279 277 275 272 270 269 268 267 266 265
266 265 265 267 268 268 267 267 270 272 274 274 274 273 271 270 270 270 270 269 269 269 268 267 268 269 271 271 272 273 274 275 275 275 275 276 276 276 276 275 275 274 274 273 272 272 273 274 276 277 278 280 281 282 282 282 282 282 282 281 280 278 278 278 278 279 280 280 280 280 279 279 280 280 279 279 278 277 275 273 271 269 267 265 265
263 263 264 265 267 267 267 268 271 273 275 275 274 273 272 271 270 269 269 268 268 268 268 268 268 270 271 272 272 273 274 275 275 276 276 276 276 277 277 278 277 277 277 276 276 277 278 278 280 281 283 284 284 283 282 281 280 280 279 278 277 275 274 274 274 276 276 275 275 275 275 275 276 277 277 276 276 276 275 275 274 272 269 267 265
261 262 263 263 264 265 265 266 268 271 272 272 271 271 270 270 269 269 268 268 268 269 269 268 269 270 271 272 274 275 275 275 275 275 275 275 276 277 277 278 278 278 278 279 280 281 281 282 283 283 284 284 283 282 282 281 280 278 277 276 275 275 273 273 273 274 273 272 272 272 272 272 273 273 273 273 273 272 272 272 272 271 271 270 268
263 264 265 264 264 265 265 266 268 269 269 267 266 267 267 267 268 268 267 268 268 269 269 269 270 270 271 273 274 275 275 275 275 275 274 275 275 275 276 276 277 277 277 278 278 278 280 281 282 282 282 281 281 281 281 280 280 278 277 276 276 275 273 273 273 273 273 273 273 272 272 272 271 271 271 271 271 270 270 270 269 269 269 269 268
266 266 266 266 266 266 266 267 268 268 267 265 263 263 263 264 265 265 265 266 266 267 268 268 269 270 270 272 273 273 274 275 275 275 275 275 275 275 275 276 276 276 276 276 276 276 278 279 279 279 279 279 278 278 278 278 278 277 277 276 275 274 274 274 274 273 273 273 274 274 274 273 272 271 269 269 269 269 269 269 268 267 267 267 266
268 268 267 267 267 267 268 267 267 266 265 264 263 262 263 263 263 264 264 264 265 266 266 267 268 268 269 270 272 273 274 275 276 276 276 277 277 277 276 276 275 275 275 276 276 276 277 277 277 277 277 276 275 275 276 276 276 276 276 275 274 274 274 274 274 274 273 274 274 274 275 274 273 272 270 269 269 268 268 267 267 266 266 265 265
267 268 268 269 269 269 269 267 265 264 263 262 262 262 263 263 264 265 265 266 267 267 268 269 270 270 271 271 272 274 275 276 276 277 277 277 277 276 276 275 274 274 274 274 275 275 275 275 275 275 275 275 274 275 276 276 275 275 274 274 274 273 273 272 272 273 274 274 275 275 275 274 273 273 271 270 269 268 267 267 266 266 265 264 264
266 266 267 268 268 268 267 266 264 263 262 262 261 261 262 263 264 266 267 269 270 270 271 271 272 272 273 273 274 275 275 275 275 276 276 275 275 275 274 273 273 273 273 273 273 274 274 274 275 275 275 275 275 275 275 275 274 273 273 272 272 271 271 271 271 272 273 273 274 274 274 273 273 272 271 271 269 268 267 267 267 266 266 265 264
264 265 266 266 266 266 266 264 263 263 263 263 263 263 262 262 263 265 267 269 270 270 270 271 271 272 273 274 275 275 276 276 276 275 275 274 273 273 272 273 273 273 273 273 274 274 274 274 275 275 275 275 275 275 274 274 273 273 272 272 271 271 270 270 270 271 272 272 273 274 275 275 273 272 272 272 271 271 270 270 269 269 268 267 265
263 263 264 264 264 264 263 262 263 263 264 264 264 264 265 265 265 266 267 267 268 268 269 269 270 271 272 273 274 275 275 276 276 276 276 274 273 272 273 273 274 274 275 275 275 275 275 276 276 276 276 276 276 275 274 273 273 273 273 273 273 272 272 271 270 271 273 274 274 276 278 279 278 275 274 273 273 274 273 273 273 272 271 270 268
262 262 262 263 263 263 262 263 263 263 264 264 264 264 265 266 266 266 266 266 267 268 268 268 269 270 271 271 272 273 274 275 276 277 277 276 275 274 273 273 274 274 275 275 275 276 276 276 276 276 275 275 275 274 274 273 273 273 274 274 274 274 273 271 271 272 275 277 277 278 280 283 283 280 278 277 277 277 276 275 274 272 272 271 269
260 261 261 262 262 262 263 263 263 263 263 262 263 263 264 265 266 266 266 267 268 268 268 269 269 269 270 270 271 272 272 273 275 276 276 276 275 274 274 273 274 274 274 274 274 275 275 275 276 275 274 274 274 274 274 274 274 275 275 276 276 276 275 274 274 276 278 280 281 282 284 285 286 285 283 282 281 280 279 277 275 273 271 269 268
259 259 260 260 261 261 262 262 262 262 262 262 263 264 264 264 265 266 266 267 268 268 269 269 269 269 269 270 271 272 272 273 274 274 274 273 273 273 273 273 273 274 274 274 274 275 275 275 276 276 275 275 275 275 275 275 276 277 278 279 280 280 280 280 280 281 282 284 285 286 287 287 287 286 285 284 283 281 280 278 276 273 271 270 268
258 257 256 256 256 257 259 261 262 262 262 263 263 264 264 265 265 265 265 266 267 268 268 268 267 267 268 269 270 271 272 273 274 273 273 273 273 273 273 273 273 274 274 275 276 276 276 276 276 276 276 275 275 275 276 277 278 279 281 282 284 284 284 285 285 285 286 287 287 287 287 287 286 285 285 284 283 281 279 278 276 274 272 270 269
256 256 256 255 255 256 257 259 261 262 262 263 263 263 263 265 266 266 265 265 266 267 266 266 266 266 267 268 269 270 270 272 273 273 273 272 272 272 272 272 273 274 276 277 277 277 277 277 276 276 276 276 276 277 279 281 283 284 284 285 285 286 286 286 287 287 287 287 286 286 285 285 285 284 284 283 281 280 278 276 274 273 272 270 269
257 257 257 258 258 258 258 258 259 260 260 261 262 262 262 263 264 265 265 265 265 265 265 265 266 267 268 268 268 269 270 270 270 270 271 271 271 271 272 273 274 275 276 277 277 277 277 277 278 279 280 281 282 283 284 285 285 285 285 285 285 286 286 286 286 286 286 286 285 285 285 285 285 284 283 282 280 278 276 274 272 270 269 269 268
258 258 258 259 259 259 259 259 259 259 259 258 259 260 261 261 262 263 264 265 265 265 266 266 267 267 268 269 269 269 268 269 269 269 269 269 270 271 271 272 273 275 276 277 277 278 279 281 283 285 286 286 285 285 284 284 284 284 284 285 286 286 286 286 286 286 286 286 286 286 286 286 285 284 282 280 278 275 273 271 270 268 266 266 265
257 258 258 257 258 258 258 258 258 258 258 258 258 259 259 260 261 262 263 263 264 265 266 266 266 266 267 268 268 267 267 268 268 268 268 268 269 269 270 270 271 273 274 276 278 281 283 285 286 286 285 285 284 284 284 285 285 286 286 286 286 286 286 286 286 287 287 288 288 288 288 287 287 285 283 280 277 275 272 270 268 266 265 263 262
256 255 255 255 255 256 256 257 257 257 258 258 258 258 259 260 261 262 263 264 265 265 265 265 266 266 266 266 267 267 267 266 266 266 266 266 266 267 267 267 268 270 272 276 280 281 282 283 283 284 285 286 287 287 288 289 290 290 290 290 289 289 290 290 291 291 291 292 291 291 290 290 288 286 284 282 280 277 274 272 269 266 264 262 260
254 254 254 254 254 254 254 255 256 256 257 257 258 258 259 260 260 261 263 264 264 265 265 266 265 265 265 266 265 265 264 263 263 263 263 263 263 262 261 261 263 265 269 274 277 279 281 283 286 288 290 292 294 295 296 297 297 297 296 295 295 295 295 295 295 294 294 293 293 293 292 290 288 287 286 285 283 281 278 276 273 270 266 263 260
252 252 252 252 253 253 253 253 253 253 254 255 256 257 258 258 259 260 261 262 262 263 263 263 264 264 264 263 262 262 262 261 261 260 259 258 257 253 247 247 252 258 265 271 275 280 286 291 295 299 301 303 303 303 303 302 301 300 299 298 298 297 296 295 294 293 293 294 294 294 293 291 291 293 293 291 289 288 286 282 278 275 271 267 263
250 249 249 249 250 251 251 251 251 251 252 252 253 254 255 257 258 258 258 259 259 259 259 260 261 261 260 260 261 261 258 254 251 248 247 245 238 230 227 235 245 254 262 270 278 288 299 308 313 315 313 311 310 308 307 307 307 306 304 302 301 300 299 297 296 295 296 297 298 298 299 301 303 305 306 305 304 303 301 298 294 288 282 277 273
246 245 245 245 246 247 248 248 248 249 249 249 249 250 251 251 252 252 252 252 253 255 258 260 259 256 256 258 256 248 236 227 222 221 221 218 215 215 220 231 241 249 258 267 285 309 324 332 333 328 322 318 315 314 316 317 318 316 314 311 309 307 304 301 298 299 300 302 304 306 306 305 305 307 309 310 310 309 308 304 300 294 288 284 280
241 240 240 240 240 241 242 242 243 243 242 240 239 239 237 236 237 240 243 247 252 255 257 254 249 247 247 240 222 206 203 205 205 205 206 209 210 212 217 224 230 234 243 268 315 339 346 346 342 335 330 326 324 324 327 329 328 324 321 317 313 310 307 302 299 301 305 305 303 303 301 299 301 307 310 311 310 307 303 299 293 289 284 279 276
231 231 231 231 231 230 228 225 224 221 216 212 212 213 212 216 226 236 243 249 250 247 239 233 232 232 223 207 194 192 200 205 205 204 202 201 202 205 209 213 215 217 234 307 349 354 351 347 344 342 339 335 333 334 336 337 335 330 323 318 314 313 313 310 307 310 313 309 302 300 301 304 311 315 314 312 310 306 301 296 291 288 285 281 278
213 214 213 211 207 200 194 190 186 180 175 177 184 193 202 213 226 234 236 234 228 221 216 212 209 205 198 192 192 200 207 202 196 190 187 189 195 200 202 203 205 212 254 355 359 355 349 346 346 346 344 342 341 342 344 344 342 335 326 320 320 320 320 321 321 323 323 316 308 308 310 314 318 318 316 315 314 310 304 299 294 290 287 284 281
147 158 162 165 163 158 155 154 153 153 159 171 185 197 208 218 223 222 217 211 208 208 207 202 195 191 188 188 197 209 207 195 184 179 183 190 195 197 197 200 205 211 348 2 355 351 349 347 346 347 348 347 348 349 350 351 348 342 332 327 329 326 324 329 331 327 321 315 312 312 316 318 319 321 322 324 325 323 320 316 312 306 300 292 285
128 131 134 137 140 141 141 145 151 161 173 183 193 203 211 214 212 209 207 206 205 203 201 197 193 188 187 194 207 211 201 188 181 182 189 195 196 198 202 204 204 204 297 344 347 349 350 348 347 348 350 351 353 355 356 356 355 351 341 333 332 329 325 329 334 329 318 315 314 316 320 321 322 327 332 335 338 339 338 334 329 324 315 305 294
141 141 142 144 147 150 156 164 172 183 191 194 198 204 205 202 202 206 208 207 204 201 199 197 195 194 200 210 211 201 189 182 184 190 195 199 201 206 208 208 208 221 259 317 339 347 350 349 348 348 350 353 357 360 359 359 1 359 352 337 332 332 326 323 328 328 319 316 319 322 324 325 327 334 343 346 347 348 346 343 341 337 328 317 307
140 144 149 153 156 162 171 178 182 189 196 198 198 198 197 196 201 205 203 199 197 197 198 199 202 208 212 209 197 186 180 182 190 196 201 205 209 212 214 215 221 236 263 304 328 340 348 349 348 349 351 354 359 2 2 3 4 5 1 350 338 337 333 322 313 313 315 320 326 327 326 328 335 346 353 354 353 353 353 352 353 351 346 340 338
122 129 140 150 156 163 171 176 178 182 187 188 188 190 193 195 197 195 191 190 193 198 203 207 209 207 201 190 181 178 181 189 197 204 208 212 217 221 222 223 230 245 266 292 316 334 345 349 349 350 353 355 358 2 5 5 6 6 5 360 350 342 339 329 311 307 317 323 325 324 325 328 339 352 359 359 358 358 360 360 359 359 360 3 7
108 112 120 132 145 154 162 167 171 176 179 179 181 185 188 191 192 191 190 195 201 205 205 201 195 189 183 177 176 182 190 198 205 212 215 219 225 230 230 230 238 253 268 286 310 329 340 347 349 352 354 356 358 2 6 7 7 7 6 3 358 349 342 335 318 309 314 317 314 316 320 327 338 348 357 360 360 3 5 4 3 6 10 15 19
109 113 120 129 138 147 155 162 167 171 173 173 174 177 182 188 193 197 199 201 199 194 188 183 179 177 177 180 186 195 203 210 217 221 222 226 232 237 239 241 247 257 270 286 306 323 335 343 348 352 355 356 357 1 6 8 7 6 7 6 2 354 345 338 327 311 304 310 313 312 315 327 337 344 353 356 355 358 1 1 1 5 12 21 27
107 109 114 121 130 138 144 147 151 155 159 162 165 169 174 185 195 198 195 189 183 177 174 175 177 180 185 193 203 212 219 223 226 227 229 234 239 244 246 250 253 261 273 287 302 318 330 339 344 350 355 357 357 360 5 8 7 7 8 7 5 359 349 340 332 319 308 314 318 314 313 325 334 341 350 352 345 342 345 349 356 360 4 16 33
111 111 110 111 114 117 120 124 130 138 148 160 172 181 188 193 193 187 181 176 173 173 175 180 186 192 200 211 220 227 231 232 233 234 236 240 246 250 252 255 261 268 278 288 300 313 325 334 340 346 352 355 356 359 3 5 7 8 8 7 6 4 358 347 335 325 318 316 313 307 312 323 330 341 357 357 346 338 337 343 359 9 5 5 28
111 115 118 121 122 124 125 128 134 145 160 175 186 194 196 191 184 179 175 174 175 179 185 191 200 210 219 225 230 234 237 238 240 243 245 249 253 256 257 261 267 273 279 288 298 309 319 328 334 341 347 351 354 358 360 1 4 8 9 8 7 7 5 358 346 330 321 317 304 287 301 320 329 346 10 11 2 353 348 349 1 15 19 16 22
110 116 122 128 136 141 143 146 149 156 168 181 190 193 190 184 179 178 178 180 183 188 196 205 216 225 232 237 240 242 244 245 248 251 254 256 258 261 262 264 269 273 278 286 296 305 313 321 328 335 341 346 351 355 356 357 360 4 8 9 9 9 8 5 356 340 324 316 301 278 283 311 324 335 360 12 10 4 359 355 356 8 22 30 32
Height
5725 5725 5726 5727 5728 5729 5730 5731 5732 5733 5734 5735 5734 5734 5733 5732 5733 5734 5734 5733 5733 5734 5734 5735 5735 5735 5736 5736 5737 5737 5738 5738 5739 5739 5740 5740 5740 5741 5741 5741 5742 5742 5742 5742 5742 5742 5742 5742 5742 5742 5742 5742 5742 5742 5743 5743 5743 5743 5744 5744 5745 5745 5745 5745 5744 5744 5744 5744 5744 5744 5745 5745 5745 5745 5745 5745 5745 5746 5746 5746 5746 5746 5746 5747 5747
5721 5722 5723 5725 5725 5725 5727 5728 5729 5730 5730 5731 5731 5731 5731 5731 5732 5733 5733 5732 5732 5732 5732 5732 5732 5732 5733 5733 5734 5735 5735 5736 5737 5737 5737 5738 5738 5738 5739 5739 5739 5739 5740 5740 5740 5739 5739 5739 5739 5739 5739 5739 5740 5740 5740 5740 5740 5741 5741 5741 5742 5742 5742 5742 5742 5742 5742 5742 5741 5741 5742 5742 5742 5742 5742 5742 5743 5743 5743 5743 5744 5744 5745 5745 5745
5719 5719 5719 5721 5721 5722 5723 5724 5725 5726 5726 5726 5727 5728 5729 5729 5729 5730 5731 5731 5730 5730 5730 5730 5730 5730 5730 5730 5731 5732 5732 5733 5734 5734 5735 5735 5735 5735 5736 5736 5737 5737 5737 5737 5737 5737 5737 5736 5736 5736 5737 5737 5737 5737 5737 5737 5738 5738 5738 5738 5738 5739 5739 5739 5739 5739 5738 5738 5738 5738 5738 5739 5739 5739 5739 5739 5739 5740 5740 5740 5741 5741 5742 5742 5743
5716 5716 5717 5717 5717 5717 5719 5720 5721 5722 5722 5723 5723 5724 5725 5725 5726 5727 5727 5727 5728 5728 5728 5728 5728 5728 5728 5728 5729 5729 5729 5729 5730 5731 5731 5731 5732 5732 5733 5733 5734 5734 5735 5735 5735 5735 5735 5735 5734 5734 5734 5734 5734 5734 5734 5734 5734 5735 5735 5735 5735 5735 5736 5736 5736 5736 5736 5735 5734 5734 5735 5735 5735 5735 5735 5735 5735 5736 5736 5736 5737 5737 5738 5739 5739
5712 5713 5715 5715 5714 5713 5714 5716 5717 5718 5719 5719 5720 5720 5721 5721 5722 5723 5724 5724 5725 5725 5725 5725 5725 5725 5726 5726 5727 5727 5726 5726 5726 5727 5727 5728 5728 5728 5729 5730 5731 5731 5732 5732 5732 5732 5732 5732 5732 5731 5731 5731 5731 5731 5731 5731 5731 5731 5732 5731 5732 5732 5732 5732 5732 5732 5733 5732 5731 5731 5731 5731 5730 5730 5731 5731 5732 5732 5732 5732 5733 5733 5734 5734 5735
5709 5710 5711 5711 5711 5710 5711 5712 5713 5713 5714 5715 5716 5716 5717 5717 5718 5719 5720 5721 5721 5722 5722 5722 5722 5722 5723 5723 5724 5724 5724 5724 5724 5723 5723 5724 5725 5725 5726 5726 5727 5727 5728 5728 5729 5729 5729 5729 5729 5729 5728 5728 5728 5728 5728 5728 5728 5728 5728 5728 5728 5728 5728 5728 5728 5728 5729 5729 5728 5728 5727 5727 5726 5726 5726 5727 5727 5728 5728 5728 5728 5728 5729 5729 5730
5705 5705 5705 5706 5707 5707 5709 5709 5709 5709 5710 5711 5712 5713 5713 5713 5714 5715 5716 5717 5718 5718 5718 5718 5718 5719 5719 5720 5720 5720 5720 5721 5721 5721 5720 5720 5721 5722 5723 5723 5723 5723 5724 5724 5725 5725 5725 5726 5726 5726 5726 5725 5725 5725 5725 5724 5724 5724 5724 5724 5724 5724 5724 5724 5724 5724 5724 5724 5724 5724 5723 5723 5722 5722 5721 5721 5722 5722 5723 5724 5724 5724 5724 5724 5725
5700 5701 5701 5702 5703 5704 5705 5705 5704 5704 5705 5706 5707 5708 5709 5709 5709 5710 5711 5712 5713 5713 5713 5713 5713 5714 5715 5715 5715 5716 5717 5717 5717 5717 5717 5717 5717 5718 5719 5719 5720 5719 5720 5720 5720 5721 5721 5721 5722 5722 5722 5722 5722 5721 5721 5720 5720 5720 5720 5720 5720 5720 5720 5719 5719 5719 5719 5719 5719 5719 5719 5718 5717 5717 5717 5717 5717 5717 5717 5718 5719 5719 5719 5719 5719
5695 5696 5697 5698 5698 5699 5699 5698 5698 5699 5701 5702 5703 5703 5704 5704 5705 5705 5706 5707 5708 5708 5708 5708 5709 5710 5711 5711 5712 5712 5713 5713 5713 5713 5713 5713 5713 5713 5714 5714 5715 5715 5716 5716 5716 5716 5716 5716 5717 5717 5717 5717 5717 5717 5717 5716 5716 5715 5715 5715 5715 5715 5715 5715 5715 5715 5714 5714 5714 5714 5714 5713 5712 5712 5712 5711 5712 5712 5712 5712 5713 5714 5714 5714 5714
5690 5690 5691 5692 5693 5694 5694 5694 5694 5695 5696 5697 5698 5699 5699 5699 5700 5700 5701 5702 5703 5703 5703 5703 5704 5705 5706 5707 5708 5709 5709 5709 5709 5709 5709 5709 5710 5710 5710 5710 5710 5710 5711 5711 5711 5711 5712 5712 5712 5712 5712 5712 5711 5711 5711 5711 5711 5710 5710 5709 5709 5709 5709 5709 5709 5709 5709 5709 5709 5709 5708 5708 5707 5707 5706 5705 5705 5706 5706 5706 5707 5707 5708 5708 5709
5685 5686 5686 5687 5688 5689 5689 5689 5690 5690 5691 5692 5693 5693 5694 5694 5694 5695 5696 5696 5697 5697 5698 5698 5699 5700 5701 5702 5703 5704 5704 5704 5704 5703 5703 5704 5705 5705 5706 5706 5706 5706 5707 5707 5707 5707 5707 5707 5707 5707 5707 5706 5706 5706 5706 5706 5706 5705 5705 5704 5704 5703 5703 5703 5703 5703 5703 5704 5703 5703 5703 5702 5702 5701 5701 5700 5700 5699 5699 5699 5700 5701 5701 5702 5703
5681 5681 5682 5682 5683 5683 5684 5684 5685 5685 5686 5686 5687 5688 5688 5689 5689 5689 5690 5691 5691 5692 5693 5693 5694 5694 5695 5696 5697 5697 5697 5697 5697 5697 5698 5698 5699 5700 5701 5701 5701 5701 5701 5701 5701 5701 5701 5701 5701 5702 5701 5701 5701 5701 5701 5700 5700 5700 5700 5699 5698 5698 5697 5697 5696 5696 5697 5697 5697 5697 5696 5696 5696 5695 5694 5694 5694 5693 5693 5693 5693 5693 5694 5695 5696
5676 5676 5676 5677 5677 5678 5679 5679 5680 5680 5681 5681 5681 5681 5682 5682 5683 5683 5683 5684 5685 5686 5686 5687 5688 5689 5690 5692 5692 5691 5691 5691 5691 5691 5691 5692 5693 5693 5694 5694 5695 5696 5695 5695 5695 5695 5695 5696 5696 5695 5695 5695 5695 5695 5695 5694 5694 5694 5694 5693 5692 5691 5690 5690 5689 5689 5689 5689 5690 5690 5688 5688 5689 5688 5687 5686 5687 5686 5686 5686 5686 5686 5687 5687 5688
5669 5670 5670 5671 5671 5672 5673 5673 5674 5674 5674 5674 5674 5675 5675 5674 5675 5675 5676 5676 5677 5678 5679 5680 5681 5682 5684 5686 5686 5686 5686 5686 5686 5685 5685 5685 5686 5686 5687 5687 5688 5689 5689 5689 5689 5689 5689 5689 5689 5689 5689 5688 5688 5688 5688 5687 5687 5687 5686 5686 5685 5684 5683 5682 5681 5681 5681 5681 5681 5681 5680 5680 5680 5680 5679 5679 5679 5679 5679 5679 5679 5679 5679 5679 5680
5663 5664 5665 5665 5665 5666 5667 5668 5668 5668 5668 5668 5668 5667 5668 5667 5667 5668 5668 5668 5669 5670 5671 5673 5673 5674 5676 5678 5678 5678 5678 5679 5679 5679 5679 5679 5679 5679 5680 5680 5681 5682 5682 5682 5681 5681 5682 5682 5681 5681 5681 5681 5681 5681 5681 5680 5679 5679 5678 5678 5677 5676 5675 5674 5673 5673 5673 5672 5672 5672 5672 5671 5671 5671 5671 5670 5670 5670 5670 5671 5671 5671 5671 5672 5672
5658 5659 5659 5659 5659 5661 5662 5662 5662 5662 5662 5662 5661 5661 5661 5661 5661 5662 5662 5662 5663 5663 5664 5665 5667 5668 5670 5670 5670 5670 5671 5672 5672 5672 5672 5673 5672 5672 5673 5673 5673 5674 5675 5674 5673 5674 5674 5674 5674 5673 5673 5673 5673 5673 5672 5671 5671 5671 5670 5670 5669 5668 5667 5666 5665 5665 5665 5664 5664 5664 5663 5663 5662 5662 5662 5661 5661 5661 5661 5662 5662 5662 5662 5664 5665
5652 5653 5654 5654 5654 5655 5657 5656 5656 5656 5656 5656 5656 5655 5655 5655 5655 5656 5656 5656 5657 5657 5658 5659 5661 5663 5664 5663 5662 5662 5663 5664 5665 5665 5666 5666 5666 5666 5667 5666 5666 5667 5667 5666 5666 5665 5665 5665 5666 5666 5665 5665 5664 5663 5663 5662 5662 5662 5661 5661 5660 5659 5658 5658 5658 5658 5657 5656 5656 5655 5655 5654 5654 5654 5653 5652 5652 5651 5652 5653 5652 5651 5653 5655 5656
5645 5646 5647 5648 5648 5649 5650 5650 5650 5650 5649 5649 5650 5649 5649 5649 5649 5649 5650 5650 5650 5651 5652 5654 5656 5657 5657 5657 5656 5656 5656 5656 5657 5658 5659 5659 5659 5659 5660 5659 5659 5659 5659 5658 5658 5657 5657 5658 5658 5658 5657 5656 5655 5654 5653 5653 5652 5652 5652 5652 5652 5651 5650 5649 5650 5649 5649 5648 5648 5647 5646 5646 5645 5645 5645 5644 5643 5642 5642 5643 5643 5642 5643 5645 5645
5639 5639 5640 5641 5641 5641 5642 5642 5642 5642 5642 5642 5643 5643 5643 5642 5642 5643 5643 5644 5644 5645 5646 5648 5650 5651 5650 5650 5649 5649 5648 5648 5649 5650 5650 5651 5652 5652 5652 5652 5651 5650 5650 5650 5649 5649 5650 5651 5650 5650 5649 5648 5647 5646 5645 5645 5644 5644 5644 5643 5643 5642 5641 5641 5641 5641 5640 5640 5639 5639 5638 5637 5637 5636 5636 5635 5634 5633 5632 5633 5633 5632 5634 5634 5634
5630 5630 5631 5633 5633 5633 5634 5634 5635 5634 5634 5635 5636 5636 5636 5635 5635 5636 5636 5636 5637 5638 5640 5642 5643 5644 5644 5644 5643 5641 5641 5641 5641 5642 5643 5643 5644 5644 5644 5644 5643 5642 5642 5641 5641 5641 5642 5642 5642 5642 5641 5640 5639 5638 5638 5637 5637 5636 5636 5635 5635 5634 5634 5633 5633 5632 5632 5632 5631 5630 5630 5629 5628 5628 5627 5627 5626 5624 5623 5623 5623 5623 5623 5624 5624
5621 5622 5623 5624 5625 5625 5625 5625 5626 5626 5627 5628 5629 5629 5629 5628 5628 5628 5629 5629 5630 5632 5634 5635 5636 5637 5637 5636 5635 5635 5634 5634 5634 5635 5636 5636 5636 5637 5636 5635 5635 5634 5634 5633 5633 5633 5635 5634 5634 5634 5633 5632 5632 5631 5631 5631 5630 5629 5628 5627 5627 5626 5626 5625 5625 5624 5624 5623 5623 5622 5622 5621 5620 5619 5618 5618 5617 5616 5615 5614 5613 5613 5613 5614 5614
5613 5614 5615 5616 5617 5617 5617 5617 5618 5618 5619 5620 5621 5622 5622 5622 5622 5622 5622 5623 5624 5625 5627 5628 5629 5629 5629 5628 5628 5627 5627 5628 5628 5628 5628 5629 5629 5629 5628 5628 5628 5627 5627 5626 5625 5626 5627 5627 5626 5626 5625 5624 5624 5624 5624 5623 5622 5621 5621 5620 5619 5618 5617 5617 5616 5616 5615 5615 5615 5614 5613 5612 5612 5611 5610 5609 5608 5607 5607 5606 5605 5604 5603 5603 5603
5605 5606 5607 5608 5609 5609 5609 5609 5610 5610 5611 5612 5613 5614 5615 5616 5616 5617 5617 5617 5618 5618 5620 5621 5621 5621 5621 5621 5620 5620 5620 5620 5621 5621 5621 5622 5622 5621 5621 5621 5621 5620 5619 5619 5618 5618 5619 5619 5618 5618 5617 5616 5616 5616 5616 5615 5614 5613 5613 5612 5611 5610 5609 5609 5608 5607 5607 5607 5606 5606 5605 5604 5603 5602 5601 5600 5599 5598 5598 5597 5596 5595 5594 5593 5593
5597 5598 5600 5601 5601 5602 5602 5602 5602 5603 5604 5604 5605 5606 5607 5609 5610 5611 5611 5611 5611 5611 5613 5614 5614 5615 5615 5614 5613 5613 5613 5613 5614 5614 5614 5614 5614 5614 5614 5614 5614 5613 5612 5612 5611 5610 5611 5611 5611 5610 5609 5609 5609 5609 5608 5607 5606 5606 5605 5604 5603 5602 5601 5601 5600 5600 5599 5598 5598 5597 5597 5595 5595 5594 5593 5591 5590 5589 5589 5588 5587 5586 5584 5583 5583
5589 5590 5591 5592 5593 5593 5593 5594 5595 5596 5597 5597 5598 5599 5600 5601 5603 5604 5604 5604 5604 5605 5606 5607 5608 5608 5608 5608 5607 5607 5607 5607 5608 5608 5607 5607 5607 5607 5607 5607 5607 5607 5606 5605 5604 5604 5604 5604 5604 5603 5603 5602 5602 5601 5600 5599 5599 5598 5597 5596 5595 5594 5594 5593 5592 5592 5591 5590 5590 5589 5588 5587 5586 5585 5583 5582 5581 5580 5579 5577 5577 5576 5574 5573 5573
5580 5582 5583 5584 5584 5585 5585 5586 5587 5588 5589 5590 5591 5592 5594 5595 5595 5596 5597 5597 5597 5598 5599 5600 5602 5602 5601 5601 5600 5600 5601 5601 5602 5602 5601 5601 5601 5601 5601 5601 5600 5600 5599 5599 5598 5598 5597 5597 5597 5596 5596 5596 5595 5594 5593 5592 5592 5591 5590 5588 5588 5587 5586 5585 5584 5584 5583 5582 5581 5580 5578 5577 5576 5574 5573 5572 5570 5569 5567 5566 5565 5565 5564 5563 5563
5572 5574 5575 5576 5576 5576 5577 5578 5579 5580 5581 5582 5584 5586 5587 5587 5588 5589 5590 5590 5591 5592 5593 5594 5595 5595 5594 5594 5594 5594 5595 5595 5595 5595 5595 5595 5595 5595 5595 5595 5594 5594 5593 5593 5592 5592 5591 5591 5590 5590 5589 5589 5588 5587 5586 5585 5585 5584 5582 5581 5580 5579 5578 5577 5576 5575 5574 5573 5571 5570 5568 5567 5565 5564 5562 5561 5559 5558 5556 5555 5554 5554 5553 5552 5553
5562 5564 5565 5566 5567 5568 5570 5571 5572 5573 5574 5576 5578 5579 5579 5580 5581 5582 5583 5583 5584 5585 5586 5587 5588 5588 5588 5588 5588 5589 5589 5589 5589 5589 5589 5589 5589 5589 5589 5589 5588 5588 5588 5587 5586 5586 5585 5584 5584 5583 5583 5582 5581 5580 5579 5579 5578 5577 5576 5574 5573 5572 5571 5569 5568 5566 5565 5563 5562 5560 5558 5557 5555 5553 5551 5550 5548 5546 5545 5543 5543 5543 5542 5542 5543
5552 5553 5554 5557 5559 5561 5563 5565 5565 5565 5567 5569 5570 5571 5573 5574 5574 5575 5576 5577 5577 5579 5580 5580 5581 5582 5582 5582 5582 5583 5583 5583 5583 5583 5583 5583 5583 5583 5583 5583 5582 5582 5582 5581 5581 5580 5579 5578 5578 5577 5576 5576 5575 5574 5573 5572 5571 5570 5569 5568 5566 5565 5563 5561 5559 5557 5556 5554 5552 5550 5548 5547 5545 5543 5540 5539 5537 5535 5533 5533 5532 5532 5532 5532 5533
5543 5544 5546 5549 5551 5553 5555 5557 5557 5557 5560 5562 5562 5563 5566 5567 5568 5568 5569 5570 5571 5572 5573 5574 5575 5576 5576 5576 5576 5577 5577 5577 5577 5577 5577 5577 5577 5577 5577 5577 5577 5577 5576 5576 5575 5574 5573 5573 5572 5572 5571 5571 5570 5569 5568 5567 5566 5564 5563 5561 5559 5557 5555 5553 5550 5548 5546 5544 5542 5540 5538 5536 5534 5532 5530 5528 5526 5524 5523 5522 5522 5522 5522 5522 5523
5534 5537 5539 5541 5543 5544 5546 5548 5548 5550 5553 5555 5555 5556 5558 5560 5561 5562 5563 5564 5565 5566 5567 5568 5569 5569 5570 5570 5570 5570 5570 5571 5571 5571 5571 5571 5571 5571 5571 5572 5571 5571 5571 5570 5570 5569 5569 5569 5568 5568 5567 5567 5566 5565 5563 5562 5560 5558 5556 5554 5551 5549 5546 5543 5541 5538 5536 5534 5532 5530 5527 5525 5523 5521 5519 5517 5516 5514 5512 5511 5511 5511 5512 5513 5514
5525 5528 5530 5532 5534 5535 5536 5538 5540 5542 5545 5547 5548 5550 5551 5553 5554 5556 5557 5557 5558 5560 5560 5561 5562 5563 5564 5563 5563 5564 5564 5564 5565 5565 5565 5565 5565 5566 5566 5566 5566 5566 5566 5566 5566 5566 5566 5566 5565 5565 5564 5563 5561 5560 5558 5556 5554 5551 5549 5546 5543 5540 5537 5534 5532 5529 5527 5525 5522 5520 5518 5515 5513 5511 5509 5507 5505 5504 5502 5501 5501 5501 5502 5503 5505
5516 5519 5521 5523 5525 5526 5528 5529 5532 5535 5538 5539 5541 5543 5545 5546 5548 5549 5550 5551 5552 5553 5554 5554 5555 5556 5557 5557 5557 5557 5558 5558 5558 5559 5559 5560 5560 5561 5561 5562 5562 5563 5563 5564 5564 5564 5563 5563 5562 5561 5560 5558 5556 5554 5552 5549 5547 5544 5541 5538 5535 5532 5529 5526 5523 5521 5518 5516 5513 5511 5509 5507 5504 5502 5500 5498 5497 5495 5494 5493 5493 5493 5494 5495 5496
5506 5509 5512 5514 5516 5518 5520 5522 5525 5529 5531 5531 5533 5536 5538 5540 5541 5542 5544 5545 5546 5546 5547 5547 5548 5549 5550 5550 5550 5551 5551 5552 5553 5553 5554 5555 5556 5557 5558 5559 5560 5561 5561 5561 5561 5561 5561 5560 5559 5557 5556 5554 5551 5549 5546 5543 5540 5537 5534 5531 5527 5524 5521 5518 5515 5512 5510 5507 5505 5503 5501 5499 5497 5496 5494 5492 5491 5489 5488 5487 5487 5487 5487 5488 5489
5497 5500 5503 5505 5507 5509 5512 5515 5518 5521 5523 5524 5527 5530 5532 5533 5534 5536 5538 5539 5539 5540 5540 5541 5542 5543 5543 5544 5544 5545 5546 5547 5548 5549 5550 5551 5552 5554 5555 5557 5558 5558 5559 5559 5559 5558 5558 5557 5555 5554 5551 5549 5547 5544 5541 5539 5535 5532 5528 5524 5521 5517 5514 5510 5507 5504 5502 5500 5499 5497 5496 5494 5493 5491 5490 5488 5487 5486 5485 5484 5483 5483 5483 5484 5484
5488 5491 5493 5496 5498 5501 5503 5507 5510 5513 5516 5519 5521 5523 5525 5527 5529 5530 5532 5533 5533 5534 5535 5536 5536 5537 5538 5539 5540 5541 5542 5543 5544 5545 5546 5548 5550 5552 5553 5554 5555 5556 5556 5556 5556 5556 5555 5554 5552 5550 5548 5545 5543 5540 5537 5534 5530 5526 5522 5517 5514 5510 5507 5503 5501 5499 5497 5495 5494 5493 5492 5491 5490 5488 5487 5486 5485 5483 5482 5482 5481 5480 5480 5480 5481
5480 5482 5485 5488 5490 5493 5496 5499 5503 5506 5510 5513 5515 5517 5520 5522 5524 5525 5527 5528 5528 5529 5530 5531 5532 5533 5534 5535 5537 5538 5539 5540 5541 5543 5544 5546 5548 5550 5551 5552 5553 5554 5554 5555 5554 5554 5552 5551 5549 5547 5545 5542 5540 5536 5533 5529 5524 5519 5515 5510 5506 5503 5501 5498 5497 5495 5494 5492 5491 5490 5489 5489 5488 5487 5486 5484 5483 5482 5481 5480 5479 5478 5478 5478 5477
5474 5476 5478 5481 5484 5486 5490 5494 5497 5501 5504 5507 5510 5513 5516 5518 5520 5521 5523 5524 5525 5526 5527 5528 5529 5530 5532 5533 5535 5536 5537 5538 5540 5541 5543 5545 5546 5547 5549 5550 5551 5552 5552 5552 5552 5551 5549 5548 5547 5545 5542 5539 5536 5533 5529 5524 5518 5513 5508 5504 5501 5499 5497 5495 5494 5492 5491 5490 5489 5488 5488 5487 5486 5485 5484 5483 5482 5481 5480 5478 5477 5476 5476 5475 5475
5470 5472 5474 5477 5479 5482 5486 5489 5493 5496 5500 5503 5507 5510 5513 5515 5517 5519 5520 5521 5523 5524 5525 5526 5527 5528 5530 5532 5533 5535 5536 5537 5538 5540 5541 5543 5544 5546 5547 5548 5549 5550 5550 5550 5549 5548 5548 5546 5545 5542 5540 5536 5533 5529 5524 5519 5513 5508 5503 5500 5498 5496 5495 5493 5491 5490 5489 5488 5488 5487 5486 5486 5485 5484 5483 5482 5480 5479 5477 5476 5474 5473 5472 5471 5471
5468 5470 5472 5474 5477 5480 5483 5487 5491 5494 5498 5502 5506 5508 5511 5513 5515 5517 5518 5519 5521 5522 5523 5525 5526 5527 5529 5531 5532 5534 5535 5536 5537 5538 5540 5542 5543 5545 5546 5547 5547 5548 5548 5547 5547 5547 5546 5544 5542 5540 5537 5533 5530 5525 5521 5515 5510 5504 5500 5498 5496 5494 5492 5491 5489 5488 5488 5487 5486 5486 5485 5484 5484 5483 5481 5480 5478 5476 5474 5473 5471 5470 5469 5468 5467
5469 5470 5472 5474 5477 5480 5483 5487 5491 5494 5498 5501 5505 5508 5510 5511 5513 5515 5516 5518 5519 5521 5522 5524 5525 5527 5528 5530 5531 5532 5534 5535 5536 5537 5539 5541 5542 5543 5544 5545 5545 5545 5545 5545 5545 5545 5544 5542 5540 5538 5535 5531 5527 5522 5518 5513 5507 5502 5498 5496 5494 5492 5490 5489 5488 5487 5487 5486 5486 5485 5484 5483 5482 5481 5480 5478 5476 5474 5472 5470 5469 5467 5466 5465 5464
5471 5473 5474 5477 5479 5482 5485 5488 5492 5495 5498 5501 5504 5507 5508 5510 5512 5513 5515 5517 5518 5520 5521 5522 5524 5525 5527 5528 5530 5531 5533 5534 5535 5537 5538 5540 5540 5541 5542 5543 5543 5543 5544 5544 5543 5542 5541 5540 5538 5535 5533 5529 5525 5520 5516 5511 5506 5500 5496 5494 5493 5491 5489 5488 5487 5487 5486 5485 5485 5484 5483 5482 5481 5479 5477 5475 5474 5472 5470 5469 5467 5465 5463 5461 5460
5473 5475 5477 5479 5482 5484 5487 5489 5493 5496 5498 5501 5503 5506 5507 5509 5511 5512 5514 5515 5517 5518 5520 5521 5523 5524 5526 5527 5528 5530 5531 5533 5535 5536 5537 5538 5539 5540 5541 5541 5541 5542 5542 5541 5541 5540 5539 5537 5536 5534 5531 5527 5523 5518 5514 5510 5505 5499 5495 5493 5491 5490 5488 5487 5486 5486 5485 5484 5483 5483 5481 5480 5479 5478 5476 5474 5472 5471 5469 5468 5466 5463 5461 5459 5458
5475 5477 5479 5481 5483 5485 5488 5490 5493 5496 5498 5501 5503 5505 5507 5508 5510 5511 5512 5514 5515 5517 5518 5520 5521 5523 5524 5526 5527 5529 5531 5532 5534 5535 5536 5537 5538 5539 5539 5539 5539 5540 5540 5539 5539 5538 5537 5535 5534 5531 5529 5525 5521 5517 5512 5508 5503 5499 5495 5492 5490 5489 5487 5486 5485 5484 5484 5483 5482 5481 5480 5479 5478 5477 5475 5473 5472 5470 5469 5467 5464 5462 5460 5458 5457
5478 5480 5482 5483 5485 5488 5490 5492 5494 5497 5499 5501 5503 5504 5506 5507 5508 5509 5511 5513 5514 5515 5517 5519 5520 5521 5523 5525 5526 5528 5530 5531 5533 5534 5535 5536 5536 5537 5537 5537 5538 5538 5538 5537 5537 5536 5535 5533 5532 5529 5527 5523 5520 5515 5511 5506 5502 5498 5495 5492 5490 5488 5486 5485 5484 5483 5483 5482 5481 5480 5479 5478 5478 5476 5475 5473 5472 5471 5469 5467 5465 5463 5461 5459 5457
5481 5483 5484 5486 5488 5490 5492 5494 5495 5497 5499 5500 5502 5503 5505 5506 5507 5509 5510 5512 5513 5515 5516 5517 5519 5521 5522 5524 5526 5527 5529 5530 5531 5532 5533 5534 5535 5535 5535 5535 5536 5536 5536 5536 5535 5534 5533 5532 5530 5527 5525 5522 5519 5515 5510 5506 5502 5498 5495 5491 5489 5487 5486 5484 5483 5482 5482 5481 5480 5480 5479 5478 5477 5476 5475 5473 5473 5471 5469 5467 5466 5464 5462 5460 5458
5485 5486 5487 5488 5490 5492 5493 5495 5496 5498 5499 5501 5502 5503 5505 5506 5507 5509 5510 5512 5513 5514 5516 5517 5519 5521 5522 5524 5525 5527 5528 5529 5530 5531 5532 5533 5533 5533 5533 5534 5534 5534 5534 5534 5533 5532 5531 5530 5528 5526 5524 5521 5518 5514 5510 5506 5503 5499 5495 5492 5489 5487 5485 5484 5482 5482 5481 5481 5480 5479 5478 5477 5476 5475 5474 5474 5473 5472 5470 5469 5467 5465 5463 5461 5460
5487 5489 5490 5491 5492 5493 5495 5496 5497 5499 5500 5501 5502 5504 5505 5506 5507 5508 5510 5511 5513 5514 5516 5518 5519 5521 5522 5523 5525 5526 5527 5528 5529 5529 5530 5531 5531 5532 5532 5532 5532 5532 5532 5532 5531 5530 5529 5528 5526 5524 5522 5520 5517 5514 5511 5508 5504 5500 5496 5493 5490 5487 5485 5483 5482 5481 5480 5480 5479 5478 5478 5477 5476 5475 5474 5474 5473 5472 5471 5470 5468 5467 5465 5463 5462
5489 5490 5491 5492 5493 5494 5495 5497 5498 5499 5500 5501 5503 5504 5505 5506 5507 5509 5510 5512 5513 5515 5516 5518 5519 5520 5522 5523 5524 5525 5526 5527 5527 5528 5529 5529 5530 5530 5530 5530 5530 5530 5530 5530 5529 5528 5527 5526 5525 5523 5521 5519 5517 5514 5511 5509 5506 5502 5498 5495 5491 5488 5485 5483 5482 5481 5480 5479 5479 5478 5478 5477 5476 5475 5474 5474 5473 5473 5471 5470 5469 5468 5466 5465 5463
5491 5491 5492 5493 5494 5494 5496 5497 5498 5499 5500 5501 5502 5504 5505 5506 5508 5509 5511 5512 5514 5515 5517 5518 5519 5520 5521 5522 5523 5524 5525 5525 5526 5526 5527 5528 5528 5528 5529 5529 5529 5528 5528 5528 5527 5526 5525 5524 5523 5521 5520 5518 5516 5514 5511 5509 5507 5503 5500 5496 5493 5489 5486 5483 5481 5480 5479 5479 5478 5478 5477 5477 5476 5475 5474 5473 5473 5473 5472 5470 5469 5468 5467 5466 5465
5493 5493 5494 5494 5495 5495 5496 5497 5498 5499 5500 5501 5502 5504 5505 5507 5508 5509 5511 5512 5514 5515 5517 5518 5519 5520 5520 5521 5522 5522 5523 5524 5524 5525 5525 5526 5526 5526 5527 5527 5527 5526 5526 5526 5525 5524 5523 5522 5521 5520 5518 5517 5515 5513 5511 5509 5507 5504 5501 5497 5494 5490 5487 5484 5481 5480 5479 5478 5477 5477 5477 5477 5476 5475 5474 5474 5473 5473 5472 5471 5470 5469 5468 5468 5467